星链-6128 (STARLINK-6128 )

导读

STARLINK-6128是美国SpaceX公司星链(Starlink)星座的卫星,于2023年6月23日发射升空。星链项目旨在构建全球低轨卫星互联网星座,为全球偏远、缺乏基础设施的区域提供高速低延迟宽带互联网接入服务。该卫星运行在近地轨道,属于星链组网的组成部分,助力SpaceX扩展全球卫星互联网覆盖能力,推动全球互联基础设施建设。目前卫星已在轨正常运行,服务于星链星座的全球网络服务。

基本信息
目录编号:
57132
目录名称:
STARLINK-6128
国际标识:
2023-090AH
轨道中心:
EARTH
卫星名称:
星链-6128
卫星全名:
星链-6128 (STARLINK-6128 )
卫星状态:
在轨 (已飞行1176 天)
发射日期:
2023-06-23 UTC
国别 :
美国 (US)
星等 :
--
该卫星已列入 空间交会检测服务 Space Conjunction Data Service (SCDS) ,当前飞行风险评估等级: 高风险
轨道信息
数据来源 国际轨道数据 AOE轨道数据
星历时间 2026-09-11T20:22:24+0800
9小时前
查看轨道信息
2026-09-10T07:00:00+0800
1天前
查看轨道信息
半长轴 6861.231km 6861.206km
偏心率 0.0000989 0.000104
轨道倾角 42.999° 42.998°
近地点辐角 261.051° 272.584°
升交点赤经 311.965° 320.762°
平近点角 99.023° 153.921°
近地点 482.415km 482.355km
远地点 483.773km 483.783km
周期 94.268分钟 94.267分钟
每日圈数 15.275651 15.275734
详细信息
固有亮度:
5
最大亮度:
2.4
卫星平台:
Starlink v1.5
覆盖范围:
全球
运营商:
太空探索技术公司
运营商所在国:
美国
制造商(研发单位):
太空探索技术公司
制造商所在国:
美国
使用方式:
暂无
卫星简介
星链(Starlink)计划是由太空探索技术公司(SpaceX)提出的一个巨型低轨卫星互联网星座项目,计划在2019年至2024年间在太空搭建由约1.2万颗卫星组成的“星链”网络,其中1584颗将部署在地球上空550千米处的近地轨道,并从2020年开始工作。该卫星仍在工作。
2D轨道图
3D轨道图
轨道高度分析图
轨道倾角分析图
轨道综合分析图
查看轨道综合分析图
交会数据列表
事件ID 空间交会对象 最接近时刻(TCA) 交会距离 交会风险概率(CRP) 交会风险指数(CRI) 操作
CDM_260913-032305-713206-698222
2026-09-13T
03:23:44+0000
0.477 km
远距离
1.600196E-4 高风险 0.79
CDM_260913-124505-713206-401121
2026-09-13T
12:45:35+0000
1.394 km
极远距离
4.861399E-6 低风险 0.49
CDM_260913-194905-713206-401121
2026-09-13T
19:49:16+0000
1.639 km
极远距离
2.929999E-6 低风险 0.44
CDM_260913-120105-713206-698221
2026-09-13T
12:01:34+0000
1.947 km
极远距离
2.092197E-6 低风险 0.41
CDM_260913-111105-713206-401122
2026-09-13T
11:11:25+0000
2.094 km
极远距离
1.533919E-6 低风险 0.39
CDM_260913-102705-713206-698222
2026-09-13T
10:27:25+0000
2.487 km
极远距离
1.240177E-6 低风险 0.37
CDM_260913-181505-713206-401121
2026-09-13T
18:15:07+0000
2.403 km
极远距离
1.15941E-6 低风险 0.36
与全量物体交会距离演化趋势
与全量物体交会风险概率演化趋势